Погода в Хавзе

Турция     40°58′02″N   35°40′07″E
темп.,
°C
ветер,
м/с
пор.,
м/с
влажн.,
%
обл.,
%
осадки,
мм/ч
давл.,
гПа
погр.,
м
16 апреля, пт
пт1600:00+6всв119058 0.0 101714
03:00+7ююв117824 0.0 101611
06:00+7юз227498 0.0 101615
09:00+13зсз115725 0.0 1016363
12:00+17зюз2544100 0.0 10151290
15:00+17св154999 0.1 10141338
18:00+10св4584100 0.2 1017471
21:00+7св358996 0.2 1020385
17 апреля, сб
сб1700:00+6св238961 0.0 1020233
03:00+5св2292100 0.0 102190
06:00+5св2388100 0.0 1021179
09:00+8всв2178100 0.0 1021332
12:00+14ююз2462100 0.0 1018533
15:00+15з1266100 0.4 1018369
18:00+15юв1271100 0.1 101790
21:00+13ю2374100 0.1 101836
18 апреля, вс
вс1800:00+12ююз3381100 0.0 101632
03:00+11ююз3485100 0.1 101552
06:00+11ююз4783100 0.0 1015111
09:00+16ююз51163100 0.1 1015521
12:00+21ююз81445100 0.0 10151746
15:00+22зюз71346100 0.0 10151895
18:00+20юз51150100 0.0 1015533
21:00+17ююз81458100 0.0 1016501
19 апреля, пн
пн1900:00+15ююз5106499 0.0 1016238
03:00+13ю467463 0.0 1016115
06:00+12ю457790 0.0 101584
09:00+17юз2464100 0.0 1013272
12:00+21ююз4748100 0.0 1010733
15:00+26ююз6163483 0.0 10062548
18:00+24ююз81736100 0.0 1004799
21:00+23ююз10183149 0.0 1003893
20 апреля, вт
вт2000:00+23юз91928100 0.0 10021548
03:00+20ю111939100 0.0 10021231
06:00+13св0269100 0.0 100684
09:00+15ююз81032100 0.0 10071068
12:00+18юз812250 0.0 10071959
15:00+18зюз813263 0.0 10092719
18:00+14сз274942 0.1 1012977
21:00+8св348769 0.1 1017245